Theta_e
321 320 319 320 320 319 319 318 318 318 318 319 320 322 323 322 321 321 323 324 323 323 325 326 327 327 327 327 327 327 327 327 328 327 326 326 326 326 326 326 326 325 324 325 326 325 321 316 314 314 312 310 310 310 311 311 311 312 313 313 313 314 315
320 319 319 319 319 319 318 318 318 318 318 318 319 322 324 322 318 318 321 323 323 323 324 324 325 326 326 327 327 327 326 327 328 327 327 326 326 326 326 326 326 325 323 322 322 321 318 314 313 315 314 312 311 310 310 310 309 309 310 310 310 311 312
319 319 319 318 318 318 318 318 318 318 318 318 318 320 321 320 318 319 321 323 323 323 324 324 324 325 326 327 327 327 327 327 327 327 326 326 326 326 325 324 323 322 320 318 316 314 313 313 314 315 316 315 312 311 311 309 308 308 308 308 308 309 309
318 317 317 318 318 317 317 317 317 317 317 317 318 318 319 318 318 319 320 322 322 322 322 323 323 324 324 325 326 327 327 327 327 327 326 325 326 324 321 320 320 318 317 316 313 311 311 312 314 315 315 314 312 310 310 310 308 307 307 307 307 307 308
317 314 314 316 317 317 317 316 316 316 317 317 317 317 317 317 317 319 320 321 321 321 321 321 322 323 322 323 324 325 326 326 326 325 325 323 321 318 316 316 315 314 314 312 310 310 310 311 313 315 314 313 312 310 309 310 309 307 307 306 306 306 307
316 313 311 313 315 316 316 316 316 316 317 317 317 316 316 317 317 319 320 320 320 320 319 320 321 319 318 318 319 321 322 324 323 322 321 319 316 314 312 311 310 310 308 307 306 307 308 310 313 314 314 313 312 310 308 309 308 307 306 305 305 305 306
315 312 311 311 314 316 315 315 315 316 317 317 316 316 315 317 318 318 319 318 318 318 318 319 319 317 317 316 316 316 317 318 318 317 316 314 312 310 308 306 305 304 303 303 304 306 308 310 311 312 312 312 311 309 308 308 308 308 306 304 303 304 304
313 312 311 312 314 316 315 315 315 314 316 315 314 313 312 314 317 318 318 317 316 316 316 316 316 315 315 313 312 311 312 313 313 311 310 307 305 304 303 302 301 301 301 303 305 308 309 309 309 311 311 311 310 310 309 308 307 307 307 305 302 302 302
314 313 313 314 316 316 316 315 314 314 314 313 312 311 310 310 313 314 314 313 312 312 312 314 314 313 310 307 307 308 309 309 307 305 304 302 301 301 300 300 301 303 304 305 307 307 307 307 307 310 311 311 310 310 310 309 309 307 305 305 302 301 300
315 315 315 315 316 316 316 316 315 313 312 313 312 311 309 308 309 310 309 307 305 305 307 309 309 307 304 304 305 306 306 305 303 301 300 300 300 299 300 300 303 305 306 306 307 306 307 306 307 308 309 311 310 310 309 309 309 308 305 303 302 301 300
314 313 313 313 312 314 317 316 314 312 310 312 313 312 310 308 309 308 307 303 302 301 302 303 303 303 302 303 304 304 304 303 302 302 301 301 301 300 301 303 305 306 306 306 306 305 306 306 306 307 307 309 310 310 311 309 308 308 306 302 301 301 300
314 312 312 311 311 312 315 316 314 312 309 309 311 312 310 309 309 309 308 306 304 303 302 301 303 303 302 302 303 303 304 303 303 304 303 303 303 303 304 304 305 306 305 305 305 305 305 306 307 308 307 308 309 309 310 310 308 307 306 302 301 301 299
315 313 311 312 314 312 313 316 315 313 310 307 308 310 310 310 309 310 310 309 309 307 304 303 304 305 305 304 303 303 303 303 304 304 304 303 303 304 305 306 306 306 305 305 305 304 305 305 306 308 308 308 308 308 309 309 308 306 303 301 301 300 298
316 314 311 312 314 312 313 316 316 314 312 308 307 308 308 309 310 310 310 311 311 311 309 306 306 307 308 308 306 305 304 304 304 304 304 303 303 303 305 305 305 304 304 304 305 305 305 305 305 306 307 308 308 307 307 307 307 305 302 301 301 299 297
317 315 313 313 313 313 314 316 317 315 313 310 308 308 307 308 310 310 311 311 311 312 311 310 308 308 309 309 309 308 307 306 306 306 305 304 304 304 304 304 304 303 303 303 304 306 306 306 306 306 307 308 307 305 305 305 306 305 303 301 301 299 298
317 316 315 314 315 315 316 317 317 316 314 312 310 309 308 307 309 310 310 311 311 312 312 311 310 309 308 309 310 310 309 308 308 308 307 307 306 305 305 305 304 304 304 304 304 306 305 306 307 306 306 306 305 303 303 304 305 306 304 301 300 300 299
316 315 314 315 317 318 317 317 317 317 316 314 312 311 310 309 309 310 311 310 311 311 311 311 311 310 309 309 309 310 310 310 309 309 309 309 308 307 307 306 306 305 305 305 305 305 305 305 306 306 305 305 304 303 302 304 305 305 305 303 300 299 300
314 314 314 314 316 318 318 317 318 317 317 316 314 312 311 310 310 311 311 311 310 310 310 310 311 311 310 310 310 310 310 310 310 310 310 310 309 309 308 308 307 306 306 305 306 306 305 305 306 306 306 304 304 303 302 304 305 305 305 304 301 300 299
314 313 313 314 315 316 318 318 317 318 317 317 316 314 312 311 311 311 312 312 311 311 312 312 312 311 311 312 312 312 312 311 311 311 310 310 310 310 310 309 309 308 307 307 306 306 306 305 305 305 305 304 303 303 302 304 305 305 304 303 302 301 301
314 314 314 314 315 316 317 317 317 317 317 317 316 315 313 312 312 312 313 313 313 313 314 314 314 314 314 314 314 315 315 314 312 311 311 311 311 311 310 310 310 309 309 308 308 307 306 306 306 305 305 304 303 303 302 304 305 305 305 304 303 303 302
315 316 315 315 315 316 316 317 317 317 317 316 316 316 315 313 313 314 314 314 314 314 314 315 315 314 314 315 315 316 317 316 315 314 313 314 314 315 313 312 311 311 310 310 309 309 308 307 306 306 305 305 304 303 303 303 305 306 305 305 304 304 303
316 315 315 314 315 315 316 316 317 317 317 317 316 315 314 314 314 314 315 315 315 314 314 314 314 314 314 315 316 316 316 316 316 316 315 316 315 315 315 315 315 314 313 312 311 309 308 308 307 306 306 306 304 303 302 304 305 306 306 306 305 305 305
315 315 315 315 315 316 316 317 317 317 317 316 316 315 315 315 315 315 315 314 315 314 314 313 312 313 314 314 315 316 316 316 316 316 316 316 315 315 315 315 316 316 316 314 313 312 310 308 307 307 307 307 305 303 302 303 305 306 306 306 306 305 306
317 316 316 316 317 317 317 318 318 317 317 316 315 315 315 315 315 315 315 314 314 314 314 312 311 312 313 314 315 316 316 316 316 316 316 317 317 317 317 317 317 317 317 316 316 315 314 311 308 306 306 307 306 303 302 303 305 305 305 305 304 303 304
317 318 317 317 318 318 317 317 317 317 316 316 316 315 315 315 316 316 316 314 314 314 313 312 311 312 313 315 315 313 311 310 310 311 313 314 315 316 317 317 317 317 317 317 317 316 315 313 309 306 306 306 304 302 302 303 303 303 303 304 303 302 302
318 318 318 318 318 318 317 317 316 316 316 316 316 316 316 316 316 316 316 315 314 314 314 312 311 312 314 314 311 308 306 307 309 311 312 313 315 315 315 315 316 316 316 316 315 315 314 313 309 306 305 304 302 300 301 301 302 302 302 302 302 302 302
318 318 318 318 318 318 317 316 316 316 316 317 316 316 316 316 316 316 316 315 315 315 314 312 312 314 314 311 307 306 307 308 310 311 311 312 313 313 313 314 313 313 313 313 312 311 310 310 307 306 304 302 300 300 301 301 301 301 301 301 301 301 300
317 318 317 317 318 318 317 317 317 317 316 316 316 316 316 316 316 315 315 314 315 314 312 312 314 314 312 308 307 307 307 307 307 308 309 310 310 311 311 312 312 311 311 310 309 308 308 307 306 304 302 300 299 299 300 300 300 300 300 299 299 299 298
314 317 317 317 317 317 317 316 316 317 316 317 317 316 316 316 316 315 314 315 315 314 313 315 315 312 310 308 308 307 307 307 307 307 308 308 309 309 310 310 311 310 309 307 306 306 305 305 304 302 301 299 299 299 299 299 299 299 299 299 298 298 297
309 313 316 317 317 317 317 316 316 316 315 316 316 316 316 316 316 315 315 315 315 315 316 316 314 311 310 309 308 308 308 308 307 307 307 307 307 307 308 308 309 308 306 304 304 304 303 303 302 301 300 299 298 298 298 298 298 298 298 298 297 297 296
306 308 311 314 315 315 316 316 316 315 315 315 315 315 315 316 316 316 316 316 316 316 316 314 312 310 310 309 308 308 308 307 307 307 307 306 306 306 306 306 306 307 305 303 302 303 303 302 301 301 300 299 299 298 298 297 297 296 296 296 295 295 294
305 306 307 310 313 313 314 315 315 315 315 315 315 315 315 315 316 316 315 315 316 316 314 312 311 311 310 310 308 308 308 308 307 307 306 305 305 304 304 304 304 304 304 303 303 303 303 302 302 301 301 301 300 298 297 296 295 295 294 294 294 293 293
304 305 306 308 311 312 314 314 315 316 316 316 316 316 316 316 316 315 315 315 315 314 312 311 311 311 310 310 309 308 308 308 307 306 305 304 303 303 302 302 301 301 302 302 302 302 301 301 301 301 300 300 300 298 296 295 294 294 293 293 293 293 293
302 304 305 307 308 309 310 312 313 314 315 315 315 315 314 315 315 314 315 315 314 312 312 312 311 310 310 310 309 308 308 307 307 306 304 302 302 301 301 300 300 299 300 300 300 300 300 300 299 299 298 298 297 296 295 294 293 293 293 293 293 293 293
301 302 304 306 307 306 307 308 310 310 311 312 312 312 312 313 313 313 313 314 313 312 312 312 311 310 310 309 309 308 307 307 306 305 304 302 301 301 300 300 299 298 299 299 299 298 298 297 297 296 296 295 295 294 294 293 293 293 293 293 293 294 294
301 301 303 304 305 306 306 306 307 307 308 308 309 309 310 311 312 312 312 312 312 312 311 311 310 309 309 308 307 307 306 306 305 305 304 303 301 300 300 299 298 298 297 297 297 297 296 295 295 294 294 293 293 293 293 293 293 293 293 293 293 294 294
300 300 301 302 303 304 305 305 306 306 306 306 306 307 309 310 310 310 310 311 311 311 310 309 308 308 307 306 306 305 305 305 304 304 303 302 301 300 298 298 297 296 296 296 296 295 294 294 293 293 293 293 292 292 293 293 293 293 293 293 293 293 293
Wind_Speed
12 13 12 10 8 8 9 9 9 9 8 7 6 6 6 6 5 5 4 4 5 6 7 7 7 7 7 7 7 7 7 6 6 6 7 9 8 7 5 4 4 6 7 5 5 6 6 6 8 12 17 22 24 23 20 19 20 21 20 19 17 16 17
12 13 13 10 9 7 7 8 8 8 8 6 6 6 7 6 4 3 3 4 5 7 8 9 8 7 6 6 6 6 7 7 5 5 7 8 9 9 7 6 6 7 8 7 6 6 7 6 6 7 11 16 20 20 19 19 19 20 20 19 17 16 17
13 13 12 11 10 8 7 7 6 6 6 6 6 5 6 5 3 3 4 6 7 8 9 9 8 7 7 6 6 7 8 8 6 6 7 8 8 9 8 9 9 9 8 7 7 7 6 6 7 8 9 10 12 13 15 17 17 17 17 18 17 16 16
11 12 12 11 10 9 8 8 6 5 5 6 6 5 5 4 3 4 6 8 8 9 9 8 8 8 9 9 8 8 8 8 8 8 8 8 9 10 10 9 8 7 7 6 6 6 7 8 8 8 9 10 11 11 12 14 15 16 16 17 17 16 16
8 9 10 10 9 9 9 8 7 7 7 7 7 6 5 4 4 4 6 8 8 8 8 7 9 11 12 13 12 12 11 11 12 12 12 13 13 14 12 10 9 8 7 7 7 6 7 9 11 10 10 10 10 10 9 10 13 15 16 15 16 16 16
7 7 8 8 8 9 9 8 8 8 9 8 7 6 5 4 4 5 6 6 7 7 7 8 10 12 13 14 14 15 15 15 15 15 15 16 15 14 13 11 11 10 10 10 10 9 9 11 12 11 9 8 9 10 7 7 9 12 15 15 14 14 15
9 8 7 7 8 8 8 8 8 9 9 8 7 6 5 4 4 5 5 5 6 6 7 8 10 12 12 12 13 14 15 15 15 14 15 14 13 12 12 13 13 13 13 12 11 10 10 10 12 13 11 8 9 10 8 7 8 8 11 13 13 13 14
12 11 9 8 8 7 7 7 7 8 8 7 7 6 4 4 5 5 4 4 5 6 8 9 10 10 9 10 12 12 13 13 13 12 12 12 12 12 13 14 15 14 14 14 13 12 10 10 12 14 13 10 7 7 8 8 9 9 8 9 12 13 13
14 13 11 10 9 7 7 7 6 7 7 6 6 5 4 4 5 5 4 4 5 6 8 9 9 8 8 9 11 12 13 12 12 12 13 13 13 13 13 14 15 15 15 15 15 15 15 14 12 11 9 9 8 6 5 5 7 9 8 7 10 12 12
13 12 11 9 7 8 9 8 6 6 6 5 5 4 4 5 6 5 5 5 6 6 7 7 7 7 9 10 12 12 12 12 13 13 13 13 13 14 14 16 17 16 16 15 14 15 16 17 15 11 7 6 6 5 5 4 4 6 7 7 7 9 10
11 13 13 9 6 8 10 9 8 6 5 6 6 5 4 5 6 6 6 6 6 7 7 7 8 8 9 11 12 12 12 12 13 13 13 13 14 14 15 16 17 16 15 13 13 13 13 15 15 14 12 9 7 6 6 5 4 4 6 7 7 8 9
13 13 15 11 5 6 8 9 10 8 6 6 7 7 6 5 6 6 6 7 7 7 7 8 8 8 9 10 11 11 11 11 11 12 12 12 13 13 14 15 15 14 13 11 10 10 10 11 12 12 12 12 10 9 7 6 5 4 4 6 6 7 8
17 14 15 13 7 10 10 10 12 10 8 7 7 8 8 6 6 6 6 6 6 6 6 6 7 7 8 9 9 10 10 10 10 10 10 10 10 11 11 12 12 11 10 9 9 9 9 10 10 10 10 11 11 10 8 8 8 6 4 5 5 5 8
21 16 15 14 14 16 14 10 12 13 11 9 7 7 9 8 8 7 6 5 5 5 4 5 5 5 6 6 7 8 8 8 8 9 9 9 9 10 10 9 9 9 8 8 8 8 8 9 9 9 9 9 9 8 8 8 9 8 5 5 5 5 7
22 18 16 15 18 19 14 12 14 15 14 13 10 8 8 9 9 8 7 6 5 5 5 4 4 4 4 3 3 4 5 5 6 6 7 8 8 9 8 8 8 8 7 7 7 7 7 8 8 8 7 7 8 8 7 7 8 8 6 5 5 5 7
22 20 19 20 19 18 15 14 15 16 16 15 13 12 10 10 10 9 9 8 7 6 6 5 4 4 3 3 2 2 2 3 4 4 5 6 6 7 7 7 7 7 7 7 6 6 7 7 7 7 7 7 8 8 8 7 7 7 7 6 5 4 5
23 23 22 23 22 19 17 15 14 16 17 16 16 15 14 13 12 11 11 10 9 8 6 6 6 6 5 5 5 5 6 6 6 5 5 5 5 6 7 7 7 7 6 7 7 6 7 7 7 7 7 7 7 7 8 8 8 7 7 6 5 4 4
24 24 22 22 21 19 17 16 15 16 17 18 18 17 16 15 14 13 12 10 8 7 6 6 5 4 4 4 5 7 8 9 10 9 9 8 7 7 7 8 8 8 8 8 8 8 8 8 7 7 7 7 6 6 6 7 7 6 6 6 5 4 4
24 23 20 20 19 18 18 16 15 17 18 20 20 18 17 16 16 15 13 10 8 6 4 2 2 2 3 4 6 9 11 12 12 12 12 11 11 10 11 10 10 10 10 10 10 10 9 9 8 8 7 7 6 6 5 6 6 6 6 6 5 4 3
24 23 22 21 19 18 19 17 15 17 19 20 20 19 18 17 16 14 12 10 8 7 4 0 2 2 4 6 8 12 13 13 14 14 14 13 13 13 13 14 13 13 14 13 13 13 12 12 11 10 9 8 7 7 6 6 5 5 5 4 3 3 2
24 24 24 24 22 20 18 17 16 17 19 20 20 19 18 18 17 13 12 10 9 9 7 4 5 6 7 8 10 13 13 13 14 15 15 15 16 16 16 16 16 16 16 16 16 15 15 15 13 13 12 10 10 9 8 7 5 4 4 3 2 1 1
23 23 25 27 26 22 19 18 18 19 20 21 20 19 18 19 18 14 10 8 7 7 8 6 8 10 10 8 11 13 12 12 12 14 15 16 17 17 17 17 18 18 18 17 17 17 18 17 16 16 14 13 13 12 9 8 6 5 4 3 2 1 1
22 23 24 25 25 23 22 22 21 20 21 21 20 20 19 19 20 14 5 8 11 11 12 12 11 11 11 11 14 15 14 14 13 13 14 15 15 15 16 17 18 19 18 18 17 17 18 19 19 19 16 14 14 13 11 9 6 4 4 2 1 1 3
21 24 25 24 24 24 24 24 23 22 22 21 20 19 18 20 23 18 16 22 23 19 19 20 19 18 16 14 15 15 14 13 12 12 13 13 13 14 15 16 17 18 18 18 17 17 17 18 20 21 19 15 14 13 11 9 7 5 3 2 1 2 3
17 21 24 26 23 22 23 25 26 25 25 25 24 22 23 27 28 24 24 28 27 23 21 20 22 23 18 14 11 10 10 10 11 12 12 12 12 13 14 14 15 15 16 16 16 16 15 15 17 21 20 16 14 13 10 9 7 5 3 3 3 4 4
12 15 18 19 18 19 23 27 28 29 30 29 28 27 29 31 31 28 25 24 25 25 24 22 22 21 15 9 7 6 7 8 9 8 8 8 8 9 10 11 10 10 11 11 12 12 13 11 13 19 20 16 15 14 11 9 7 5 4 4 4 5 6
10 12 13 15 15 19 25 29 29 29 29 29 29 30 31 31 30 27 23 23 25 26 24 22 20 16 11 8 6 4 4 4 3 2 1 1 1 2 4 5 5 5 5 5 6 7 8 9 11 16 18 17 16 15 12 10 8 7 6 6 5 6 7
10 11 12 14 16 19 24 27 27 27 27 28 29 31 32 31 28 24 22 23 26 25 23 20 17 14 12 10 7 6 6 5 5 5 4 4 4 4 3 3 3 3 3 3 4 4 5 6 10 16 18 17 16 14 11 10 9 8 7 8 7 7 8
9 12 15 15 17 20 24 25 23 22 24 27 30 31 30 27 25 23 22 22 23 22 20 18 17 17 14 11 9 8 6 6 6 6 6 6 6 5 5 5 4 4 4 5 4 3 1 3 10 16 17 15 13 10 8 7 7 7 6 7 6 6 6
4 11 17 19 19 21 24 25 23 19 20 24 27 28 27 25 23 23 22 21 20 19 17 18 20 18 14 11 10 8 6 6 6 6 6 6 6 6 6 6 5 5 5 4 3 3 3 5 9 12 12 11 9 7 6 5 4 4 4 4 4 5 5
7 5 11 18 22 23 24 25 23 21 21 21 21 23 23 22 21 21 21 20 19 19 20 22 21 17 14 12 10 9 7 7 6 6 6 6 6 6 6 6 6 5 4 3 3 3 3 5 6 7 8 8 6 5 4 3 2 3 3 4 4 5 6
11 7 6 10 16 19 20 21 21 21 21 18 17 21 22 20 19 18 17 18 20 22 23 23 19 16 14 13 11 10 9 7 7 6 5 5 6 6 6 5 5 4 3 3 3 3 4 4 4 4 4 5 5 4 4 3 2 2 3 3 4 5 6
14 10 7 6 7 9 13 15 16 18 20 19 20 22 23 20 18 17 17 18 21 22 21 20 17 15 14 13 12 11 9 8 7 6 6 6 7 7 7 6 6 5 4 3 3 2 2 2 2 2 3 4 5 5 4 4 3 3 4 5 6 7 8
14 13 10 7 7 8 9 10 11 13 15 16 18 20 21 20 21 21 20 20 20 19 17 17 16 15 14 13 12 11 9 9 8 8 9 9 8 8 8 7 6 5 3 3 3 2 2 2 2 2 3 3 4 4 4 3 4 5 6 7 8 8 8
12 13 10 7 9 10 12 12 13 14 14 15 16 17 18 20 22 22 21 19 18 17 16 16 16 15 14 13 12 11 10 9 9 9 9 10 9 9 8 8 7 5 3 3 3 2 2 2 2 2 2 2 2 3 2 2 4 4 5 6 7 7 7
12 11 9 8 8 10 13 16 17 16 16 17 17 16 15 16 19 21 21 19 18 18 18 18 16 16 15 14 13 12 10 9 9 8 8 9 10 10 9 9 7 6 5 3 2 2 1 0 0 0 0 1 2 3 3 3 3 4 5 6 7 8 9
14 11 10 11 12 11 11 15 19 19 20 20 21 21 21 21 21 22 22 21 21 20 20 20 18 17 16 15 14 12 10 9 8 7 8 9 11 11 11 10 8 6 5 3 2 1 1 1 1 1 1 2 4 4 4 4 4 5 6 7 8 9 9
Wind_Direction
144 141 139 132 123 115 107 105 108 109 105 103 107 121 135 128 109 110 117 117 115 121 129 134 139 142 147 152 153 154 155 155 160 158 158 161 154 145 143 140 138 142 144 145 152 151 142 118 91 84 78 76 77 76 73 71 72 76 77 71 64 64 65
146 141 139 132 126 119 107 105 108 111 111 112 114 123 137 132 108 98 114 126 125 122 124 127 130 132 139 148 153 157 155 155 157 154 153 155 152 147 144 139 128 120 116 112 118 123 124 129 125 113 99 83 73 68 68 70 68 69 71 68 63 61 63
149 145 140 135 133 128 122 119 115 114 117 123 125 125 131 131 120 110 121 135 136 127 125 128 128 127 131 139 149 156 158 154 146 142 143 141 144 148 146 139 131 125 121 115 115 117 118 125 129 131 125 104 85 70 64 65 65 63 64 63 61 58 58
152 152 147 143 139 135 134 132 130 127 124 128 128 125 125 118 110 115 125 134 136 130 127 124 120 118 119 124 130 137 146 149 140 134 134 131 134 142 144 140 136 133 133 130 132 135 134 135 136 135 126 113 103 90 74 67 65 63 61 59 57 56 56
157 156 152 149 144 141 140 138 135 129 126 129 128 126 124 112 108 117 124 129 131 132 130 120 116 115 115 116 118 121 125 131 133 131 129 129 133 138 138 135 129 122 120 123 128 134 138 141 141 137 131 125 112 102 94 81 70 64 61 58 56 55 56
161 156 150 149 147 145 142 140 139 132 129 131 132 130 124 117 123 126 126 127 129 133 130 121 119 117 115 115 115 116 116 120 125 127 128 131 135 136 134 130 124 118 117 120 123 124 126 135 138 135 132 129 119 113 108 98 87 72 62 58 57 56 57
157 152 147 147 150 150 149 147 143 137 135 137 137 132 126 129 137 138 140 142 141 142 136 130 127 123 119 119 119 118 118 121 126 128 130 134 136 134 133 130 124 119 116 117 118 120 126 133 138 137 131 123 120 119 110 97 95 83 68 61 57 56 60
154 149 148 152 156 161 163 161 151 142 140 145 144 136 133 144 151 156 160 156 151 145 140 137 134 129 125 125 126 125 125 128 131 133 134 134 132 130 131 128 122 118 116 115 111 108 114 128 139 143 140 135 128 123 118 104 87 75 72 69 60 54 59
153 150 150 154 161 176 182 177 164 149 149 158 155 143 141 149 154 160 164 160 153 145 145 145 138 134 132 129 129 129 130 133 134 133 131 130 129 129 130 127 122 118 115 112 107 102 102 112 128 142 149 148 142 132 127 113 89 72 65 69 64 53 53
144 141 143 149 160 183 194 195 184 163 165 183 179 164 153 149 146 147 147 143 138 135 138 140 135 131 129 127 128 127 130 132 130 128 128 129 130 129 129 126 121 118 114 108 103 100 98 99 104 109 117 129 136 137 128 107 92 76 61 56 60 53 50
147 136 133 139 158 181 190 201 204 183 175 198 200 190 174 158 148 140 136 129 123 123 123 122 119 119 119 121 123 124 126 127 125 124 124 127 128 128 128 126 122 118 115 109 103 101 100 98 96 96 93 88 88 103 118 111 96 75 63 57 56 54 51
169 150 145 146 169 211 204 207 213 200 185 198 204 200 191 174 159 142 133 129 121 117 118 117 114 111 115 116 117 119 122 123 122 120 121 123 125 126 127 126 125 122 118 114 108 105 104 104 101 97 93 88 85 86 97 111 105 79 61 60 60 57 55
177 166 162 156 177 229 232 219 215 213 201 196 201 202 199 189 177 163 150 141 129 120 120 121 115 109 113 115 116 119 120 121 123 122 123 124 124 128 131 130 130 128 123 118 115 112 109 110 109 106 101 96 92 89 89 98 105 103 86 73 74 67 60
184 180 178 170 185 216 236 234 220 219 214 205 205 207 205 200 192 184 175 165 153 146 142 137 130 119 116 115 118 124 127 128 130 130 133 134 134 137 138 140 141 137 132 128 125 122 121 119 116 112 109 104 97 92 91 96 105 115 113 94 90 79 68
190 193 198 197 202 216 239 246 228 222 220 214 211 212 212 207 202 200 196 192 187 185 185 178 166 152 145 137 130 134 141 145 145 142 142 146 150 150 148 151 151 145 142 141 140 139 136 136 132 126 119 115 108 99 95 100 105 114 123 117 110 94 75
196 199 208 216 222 226 237 246 237 226 223 221 215 213 215 212 206 206 207 207 206 205 206 207 206 202 197 198 209 222 218 200 190 180 168 164 167 168 168 171 171 165 162 159 160 161 155 151 148 142 135 126 120 108 101 105 106 112 125 125 122 116 86
203 204 212 223 232 233 235 247 247 235 228 227 224 216 212 212 211 209 210 212 211 209 210 215 222 228 232 240 250 257 263 259 251 244 231 214 206 202 196 195 199 195 188 187 186 183 175 168 161 155 148 136 127 115 103 102 102 106 122 128 124 119 99
209 210 216 226 235 239 240 245 247 244 236 230 229 224 215 212 211 210 210 207 201 198 200 209 221 235 247 261 279 285 282 275 269 265 261 255 248 243 234 225 223 220 215 213 210 205 199 189 180 172 165 154 145 132 114 104 98 100 114 126 129 117 94
215 219 226 232 237 239 239 240 244 246 241 233 230 226 220 215 212 211 209 200 190 181 174 198 234 254 274 287 304 308 301 290 282 275 270 268 263 260 257 251 245 239 235 233 231 226 218 210 203 196 189 179 168 157 140 120 105 103 109 117 126 123 100
220 230 238 242 246 245 239 239 242 243 241 236 229 223 220 217 213 208 199 188 183 179 169 74 351 325 304 300 310 315 306 295 288 282 278 277 275 271 267 262 257 251 247 245 245 241 233 225 219 216 213 203 191 180 166 145 124 116 116 118 119 117 118
229 239 241 243 252 257 252 247 245 242 237 232 228 222 214 206 198 189 178 168 169 184 201 251 302 309 310 307 315 317 305 291 282 278 276 276 276 276 272 269 266 261 257 255 253 251 245 237 228 220 219 216 209 198 181 165 151 140 132 132 129 119 159
238 244 243 243 249 258 261 258 253 242 231 229 227 216 203 193 182 170 162 164 174 200 224 249 282 293 293 300 316 316 300 286 276 269 268 268 268 270 269 269 270 269 268 266 261 257 253 248 239 229 224 222 215 205 191 179 171 164 162 161 162 199 270
240 243 243 242 246 250 251 253 250 238 228 227 219 202 194 191 183 177 200 235 226 224 234 247 259 264 265 284 305 300 285 278 272 264 265 265 264 266 265 266 270 271 273 273 267 262 257 251 246 240 238 236 224 211 199 192 187 182 184 184 175 270 305
235 238 239 240 242 241 238 235 233 229 223 215 205 202 208 208 206 216 242 246 237 224 225 236 233 225 240 275 291 283 272 269 266 261 262 261 262 264 265 267 269 270 272 273 273 270 262 254 247 240 240 243 235 221 212 205 201 199 198 208 222 252 292
230 233 237 238 235 229 223 218 216 218 215 207 207 218 227 225 226 236 242 237 230 218 214 221 216 216 239 269 273 264 261 259 259 260 261 264 269 273 274 275 274 271 271 271 272 274 270 262 247 235 232 234 226 217 214 214 215 217 221 238 242 240 256
226 229 232 232 224 212 209 208 208 212 212 211 214 221 224 223 225 233 235 224 215 213 215 216 215 223 242 250 235 242 254 251 254 260 264 272 279 282 284 284 282 278 272 267 268 273 274 269 247 229 223 218 210 205 209 217 223 230 239 243 239 235 247
229 229 228 223 214 206 205 205 208 213 215 216 218 218 217 218 222 229 230 215 208 212 216 213 216 222 219 200 192 197 201 203 201 193 207 303 319 313 308 299 297 296 284 275 276 277 276 269 242 219 208 202 199 202 209 218 224 233 241 243 240 242 252
230 228 225 220 213 206 205 208 214 218 219 220 219 216 213 216 223 229 224 213 210 211 210 208 209 201 184 173 163 148 138 121 106 103 94 82 73 57 38 14 351 348 344 328 317 303 283 257 222 202 193 192 195 201 211 220 228 236 241 244 245 245 250
230 226 223 222 218 214 214 217 219 219 221 222 219 215 214 220 228 225 216 210 208 206 206 203 193 180 170 163 156 146 131 113 107 101 97 92 84 75 64 48 40 34 21 3 350 352 351 202 193 187 184 188 194 201 213 223 234 247 252 253 254 254 256
265 232 227 227 228 226 226 229 232 230 231 229 224 219 220 224 224 216 210 206 201 198 196 188 179 173 167 160 158 154 139 128 120 106 98 91 81 76 70 58 57 57 48 40 53 78 101 154 180 185 187 190 193 197 208 220 236 253 262 266 270 273 276
343 283 241 233 233 234 235 237 239 235 229 228 232 232 227 218 212 209 207 199 187 179 177 176 175 173 166 161 162 160 152 144 133 117 100 88 78 75 69 62 62 64 73 103 132 143 152 164 177 187 191 186 177 176 193 212 234 260 279 288 288 291 292
342 334 299 250 234 234 238 239 236 228 219 215 225 232 227 217 207 201 195 184 172 167 170 173 173 171 167 166 168 164 158 153 143 129 111 99 94 90 82 76 76 76 94 136 162 182 187 185 186 187 181 166 153 162 190 207 223 253 275 284 286 290 291
335 331 313 271 226 213 222 227 224 216 212 213 218 222 220 211 194 176 169 170 167 167 170 171 170 170 172 173 172 167 160 155 149 142 135 128 119 113 107 102 100 102 107 121 133 145 159 177 188 173 157 151 156 174 196 210 228 253 273 282 287 290 289
325 326 309 269 229 194 186 193 194 191 193 199 205 203 195 184 172 162 163 168 169 169 172 173 172 175 178 177 173 169 164 161 159 158 153 145 134 130 129 125 122 121 117 118 122 126 136 152 169 174 174 179 189 200 211 232 263 282 291 293 294 295 292
310 317 311 275 238 213 193 179 172 172 172 171 176 181 177 169 164 163 165 169 170 171 175 178 180 180 179 178 175 172 170 167 164 161 156 151 146 145 146 145 142 141 146 149 145 142 146 153 163 183 193 202 227 247 259 278 294 299 298 297 299 297 294
303 302 295 278 261 238 211 192 183 184 185 178 174 178 181 177 169 166 165 167 173 177 177 180 184 183 179 178 177 175 172 167 161 157 156 158 160 159 156 156 155 157 162 164 156 144 130 98 90 90 43 306 305 312 322 323 317 312 306 302 301 299 297
300 295 280 270 272 268 241 214 201 195 191 186 181 180 182 182 175 169 167 168 174 179 180 181 182 182 181 179 176 173 169 162 156 154 157 161 164 164 163 163 162 163 165 162 153 130 80 49 45 45 8 333 329 335 339 332 324 316 309 304 303 302 301